This demonstration page uses our WeatherBlox Daily Observations layout. Learn more.

Left ArrowRight Arrow

Hourly Observations for June 2, 2019

Temp ( °F °C ) Dew Point ( °F °C ) Humidity (%) Winds ( mph kmh ) Pressure ( in mb ) Visibility ( mi km ) Precip ( " mm )
12:59 am 00:59 Mostly Cloudy 67 19.4 64 17.8 91 91 SSW 5 7 29.84 1011 8 13 0.00 0.00
1:59 am 01:59 Mostly Cloudy 67 19.4 64 17.8 91 91 SSW 6 9 29.83 1010 10 16 0.00 0.00
2:59 am 02:59 Clear 68 20 64 17.8 87 87 SSW 5 7 29.80 1009 10 16 0.00 0.00
3:59 am 03:59 Mostly Clear 67 19.4 63 17.2 87 87 SW 5 7 29.80 1009 10 16 0.00 0.00
4:59 am 04:59 Partly Cloudy 68 20 62 16.7 81 81 SW 7 11 29.81 1009 10 16 0.00 0.00
5:59 am 05:59 Partly Cloudy 67 19.4 61 16.1 81 81 SW 5 7 29.81 1009 10 16 0.00 0.00
6:59 am 06:59 Partly Cloudy 68 20 62 16.7 81 81 WSW 6 9 29.83 1010 10 16 0.00 0.00
7:59 am 07:59 Mostly Sunny 72 22.2 63 17.2 73 73 WSW 7 11 29.83 1010 10 16 0.00 0.00
8:59 am 08:59 Sunny 75 23.9 64 17.8 69 69 SW 9 15 29.84 1011 10 16 0.00 0.00
9:59 am 09:59 Partly Cloudy 79 26.1 64 17.8 60 60 SW 7 11 29.84 1011 10 16 0.00 0.00
10:59 am 10:59 Partly Cloudy 81 27.2 65 18.3 58 58 VRB 6 9 29.84 1010 10 16 0.00 0.00
11:59 am 11:59 Mostly Cloudy 83 28.3 65 18.3 55 55 S 7 11 29.84 1011 10 16 0.00 0.00
12:59 pm 12:59 Mostly Cloudy 85 29.4 65 18.3 51 51 S 6 9 29.82 1010 10 16 0.00 0.00
1:59 pm 13:59 Mostly Cloudy 86 30 63 17.2 46 46 SSW 10 17 29.79 1009 10 16 0.00 0.00
2:59 pm 14:59 Mostly Cloudy with Thunderstorms 82 27.8 62 16.7 51 51 SW 8 13 29.78 1008 7 11 0.00 0.03
3:59 pm 15:59 Mostly Cloudy with Thunderstorms 82 27.8 68 20 63 63 SSW 9 15 29.77 1008 10 16 0.09 2.29
4:07 pm 16:07 Mostly Cloudy 82 27.8 67 19.4 60 60 SSW 8 13 29.76 1008 10 16 0.00 0.00
4:59 pm 16:59 Partly Cloudy 84 28.9 66 18.9 55 55 SSW 9 15 29.75 1007 10 16 0.00 0.00
5:59 pm 17:59 Partly Cloudy 84 28.9 65 18.3 53 53 SW 8 13 29.75 1007 10 16 0.00 0.00
6:59 pm 18:59 Mostly Cloudy 83 28.3 65 18.3 55 55 SSW 8 13 29.75 1008 10 16 0.00 0.00
7:59 pm 19:59 Mostly Cloudy 80 26.7 64 17.8 58 58 S 6 9 29.77 1008 10 16 0.00 0.00
8:59 pm 20:59 Mostly Cloudy 79 26.1 62 16.7 56 56 S 8 13 29.79 1009 10 16 0.00 0.00
9:37 pm 21:37 Mostly Cloudy with Thunderstorms 77 25 63 17.2 62 62 S 6 9 29.80 1009 10 16 0.00 0.00
9:59 pm 21:59 Mostly Cloudy 77 25 63 17.2 62 62 SSW 12 19 29.80 1009 10 16 0.00 0.00
10:59 pm 22:59 Mostly Cloudy with Light Rain 76 24.4 64 17.8 67 67 SSW 10 17 29.80 1009 10 16 0.00 0.03
11:59 pm 23:59 Mostly Cloudy 75 23.9 65 18.3 71 71 SSW 12 19 29.80 1009 10 16 0.00 0.03

Powered by AerisWeather